{"data":{"norad_id":52608,"epoch":"2026-09-20T04:00:03.000096Z","epoch_age_seconds":91903,"freshness":"FRESH","line1":"1 52608U 22052L   26263.16670139 -.00008265  00000+0 -23376-3 0  9990","line2":"2 52608  53.1595 117.6216 0001339  84.2325 186.1126 15.34398263  5908","mean_motion":15.34398263,"eccentricity":0.0001339,"inclination_deg":53.1595,"raan_deg":117.6216,"arg_perigee_deg":84.2325,"mean_anomaly_deg":186.1126,"bstar":-0.00023376,"rev_number":590,"period_min":93.847864320738,"perigee_km":461.79241374258,"apogee_km":463.62439214149,"semimajor_km":6840.845402942,"source":"CELESTRAK","updated_at":"2026-09-20T09:00:40.069600Z"}}